User: anonymous   Login
Location: Ash Swamp
(41.5170°N, 74.6157°W)
Time: 13:37:21
(UTC+00:00)
Language:

Cosmos 1371 Rocket - Orbit

View from above orbital plane
View from above orbital plane
View from above satellite
View from above satellite

Ground track
Ground track

The orbit data is extracted from the following two-line orbital elements,

1 13242U 82051B   20274.79494217  .00000093  00000-0  40870-4 0  9991
2 13242  74.0427 308.2402 0025622 216.6276 143.3126 14.35988672  6092
Epoch (UTC): 30 September 2020 19:04:43
Eccentricity: 0.0025622
inclination: 74.0427°
perigee height: 753 km
apogee height: 790 km
right ascension of ascending node: 308.2402°
argument of perigee: 216.6276°
revolutions per day: 14.35988672
mean anomaly at epoch: 143.3126°
orbit number at epoch: 609

The dashed part of the orbit path shows where the satellite is in the earth's shadow,  

DLR